Regional Weather Roundup
Issued by NWS

Home | Current Version | Previous Version | Graphics & Text | Print | Product List | Glossary On
Versions: 1 2 3 4 5 6 7 8 9 10 11 12 13 14 15 16 17 18 19 20 21 22 23 24 25 26 27 28 29 30 31 32 33 34 35 36 37 38 39 40 41 42 43 44 45 46 47 48 49 50
878
ASUS43 KMKX 161511
RWRWI

WISCONSIN REGIONAL WEATHER ROUNDUP
NATIONAL WEATHER SERVICE MILWAUKEE/SULLIVAN WI
1000 AM CDT WED AUG 16 2017

NOTE: "FAIR" INDICATES FEW OR NO CLOUDS BELOW 12,000 FEET WITH NO
SIGNIFICANT WEATHER AND/OR OBSTRUCTIONS TO VISIBILITY.

WIZ001-002-006>008-014>016-023>028-161600-
NORTHWEST WISCONSIN

CITY           SKY/WX    TMP DP  RH WIND       PRES   REMARKS
SUPERIOR ARPT    N/A     66  60  80 NE12      29.98F
ASHLAND        MOSUNNY   66  59  78 NE5       30.01S
HAYWARD        CLOUDY    65  58  78 VRB6      30.00S
SIREN          PTSUNNY   66  61  83 SE5       29.95F
CUMBERLAND     CLOUDY    64  61  88 SE9       29.97F
RICE LAKE      DRIZZLE   67  63  86 SE12      29.99F
CHETEK         LGT RAIN  67  60  78 SE14G25   29.99S
LADYSMITH      CLOUDY    67  60  76 SE8       30.02F
EAU CLAIRE     CLOUDY    69  60  73 SE10      29.96S
MENOMONIE      LGT RAIN  64  64 100 CALM      29.97S
NEW RICHMOND   LGT RAIN  64  62  93 SE8       29.94F
OSCEOLA        CLOUDY    65  65 100 SE9       29.96F
$$

WIZ003>005-009-010-017-018-161600-
NORTH CENTRAL WISCONSIN

CITY           SKY/WX    TMP DP  RH WIND       PRES   REMARKS
MANITOWISH WTR MOSUNNY   65  61  88 SE8       30.04F
ARBOR VITAE    MOSUNNY   64  58  82 SE5       30.05S
WOODRUFF       MOSUNNY   64  58  82 SE5       30.05S
RHINELANDER    MOSUNNY   66  60  81 SE7       30.06F
EAGLE RIVER    PTSUNNY   65  56  73 E3        30.06S
LAND O LAKES   CLOUDY    61  56  85 S6        30.09S
PHILLIPS       MOSUNNY   68  59  73 SE8       30.02F
TOMAHAWK         N/A     65  60  84 SE5       30.05F
MEDFORD        CLOUDY    67  59  75 SE12G17   30.03R
MERRILL        CLOUDY    64  61  88 SE7       30.06R
$$

WIZ029-030-035-036-043>047-161600-
CENTRAL WISCONSIN

CITY           SKY/WX    TMP DP  RH WIND       PRES   REMARKS
WAUSAU         CLOUDY    64  59  83 E13       30.03S
MOSINEE        CLOUDY    64  63  94 E9        30.04F
MARSHFIELD     PTSUNNY   68  59  73 SE9       30.02R
STEVENS POINT  CLOUDY    65  60  82 E10       30.03S
WAUPACA        SUNNY     73  62  68 NE7       30.03S
WAUTOMA        MOSUNNY   71  60  68 E7        30.02S
WISC RAPIDS    MOSUNNY   69  59  70 SE9       30.03S
CAMP DOUGLAS   MOSUNNY   72  59  64 E12       29.99S
$$

WIZ011>013-019>022-031-037>040-048>050-161600-
NORTHEAST WISCONSIN

CITY           SKY/WX    TMP DP  RH WIND       PRES   REMARKS
ANTIGO         CLOUDY    64  59  82 SE10      30.07S
SHAWANO        CLOUDY    68  62  81 NE7       30.05F
OCONTO         CLOUDY    67  61  81 NE6       30.05F
STURGEON BAY   CLOUDY    67  64  90 NE5       30.06F
GREEN BAY      PTSUNNY   72  64  76 NE9       30.04F
MANITOWOC      MOSUNNY   70  61  73 E6        30.04F
APPLETON       MOSUNNY   70  57  64 E9        30.02F
CLINTONVILLE   CLOUDY    68  61  77 E6        30.04F
OSHKOSH        SUNNY     69  61  75 E10       30.02F
$$

WIZ032>034-041-042-053>061-161600-
SOUTHWEST WISCONSIN

CITY           SKY/WX    TMP DP  RH WIND       PRES   REMARKS
LA CROSSE      SUNNY     75  60  59 SE9       29.94F
SPARTA         MOSUNNY   73  60  63 SE9       29.98S
VIROQUA        PTSUNNY   71  61  71 E10       29.98F
BOSCOBEL       CLOUDY    74  60  61 VRB5      29.97F
PRAIRIE DU CHI SUNNY     73  61  67 SE8       29.95S
PLATTEVILLE    SUNNY     72  67  86 SE10      29.98R
$$

WIZ056-057-062-063-064-067-068-161600-
SOUTH CENTRAL WISCONSIN

CITY           SKY/WX    TMP DP  RH WIND       PRES   REMARKS
REEDSBURG      CLOUDY    71  59  66 SE7       29.99F
BARABOO/DELLS  PTSUNNY   71  58  64 E5        30.00S
LONE ROCK      SUNNY     72  63  73 E10       29.98F
MINERAL POINT  MOSUNNY   73  64  73 E10       29.98F
MADISON        CLOUDY    72  60  66 E9        30.00F
MIDDLETON      CLOUDY    72  60  65 E9        30.00F
WATERTOWN      MOSUNNY   72  64  74 E8        30.01S
MONROE         SUNNY     72  61  68 E12       29.99F
JANESVILLE     MOSUNNY   75  63  64 E10       29.99F
$$

WIZ051-052-058>065-066-070>072-161600-
SOUTHEAST WISCONSIN

CITY           SKY/WX    TMP DP  RH WIND       PRES   REMARKS
MILWAUKEE      MOSUNNY   74  65  73 E7        30.02S
WAUKESHA       SUNNY     72  63  73 E7        30.03F
MILWAUKEE/TIMM SUNNY     72  59  64 E5        30.03
RACINE         SUNNY     73  67  81 E8        30.04S
KENOSHA        SUNNY     74  66  76 E10       30.02S
FOND DU LAC    SUNNY     72  59  63 E9        30.02F
SHEBOYGAN      SUNNY     71  64  78 NE8       30.03F
WEST BEND      SUNNY     72  63  73 E5        30.03S
JUNEAU         SUNNY     71  62  73 E6        30.03R
$$

LSZ147-162-161600-
LAKE SUPERIOR

STATION/POSITION TIME  TEMP    WIND        PRES    WAVE
                       AIR SEA DIR/SP/G            HT/PER
                 (UTC) (F)     (DEG/KT/KT) (MB)    (FT/S)
W MID LAKE BUOY  1450   60 60  110/  8/ 10 1016.6F   1/ 3
DEVILS ISLAND    1500   62     100/  8/  8 1016.4R
PORT WING        1340   64      70/  4/  7 1015.6
SAXON HARBOR     1430   64     320/  2/  2 1015.6S
$$

LMZ867-665-643>646-161600-
LAKE MICHIGAN

STATION/POSITION TIME  TEMP    WIND        PRES    WAVE
                       AIR SEA DIR/SP/G            HT/PER
                 (UTC) (F)     (DEG/KT/KT) (MB)    (FT/S)
S GREEN BAY BUOY 1500   67 71   70/ 10/ 14 1017.3
N MID LAKE BUOY  1450   65 67   50/  8/  8 1018.7S   1
NORTHPORT PIER   1440   68      70/  6/  7 1017.9F
KEWAUNEE LAKESHO 1448   69      50/  4/ 10 1016.5F
SHEBOYGAN LAKESH 1500   68      50/  6/  6 1016.6F
PORT WASHINGTON  1440   72      70/  6/  8 1017.6F
ATWATER BUOY     1309   70 71   50/  6/  8 1017.0S
MILWAUKEE LAKESH 1450   70      60/  8/  8   N/A
S MID LAKE BUOY  1350   70 71   70/  4/  6 1016.7F   1/ 4
KENOSHA   LAKESH 1500   71      80/  7/  8 1016.3
$$

TC  - TEMPERATURE IN CELSIUS
VSB - VISIBILITY IN STATUTE MILES
WCI - WIND CHILL INDEX
HX  - HEAT INDEX





USA.gov is the U.S. government's official web portal to all federal, state and local government web resources and services.